DMSP 5D-2 F11 DEB, 35534

Orbit data source: Space-Track

DMSP 5D-2 F11 DEB, 35534 is space debris in SSO originally from a launch on Thu, 28 Nov 1991 UTC launched from the Air Force Western Test Range (AFWTR). Debris objects in space refer to the collection of defunct objects orbiting the Earth. Examples of debris include non-operational satellites, rocket bodies, and fragments generated from explosions, collisions, or faulty payload assembly.

Loading next visibility...
Identifier
35534, 1991-082CQ
Orbit
SSO
Country
Flag of USUS
Related business
Manufacturer
Unknown
Mission
Spacecraft
Bus & Motor
Unknown
Mass
Unknown
Launch date (UTC)
1991-11-28 (35 years ago)
Launch vehicle
Unknown
Launch site
Air Force Western Test Range (AFWTR)
Object type
Payload
Rocket body
Debris
Shape & HBR
Unknown shape, 0.1 m
Radar Cross Section
Small (<0.1 m²)

Expand to show TLE details & history
Last TLE update: 2 days ago

TLE from 2 days ago
0 DMSP 5D-2 F11 DEB
1 35534U 91082CQ  26207.53574370  .00039214  00000-0  41228-2 0  9999
2 35534  98.8077 311.5551 0022083 224.2289 200.0712 14.89119378765636
Epoch: 2026-07-26T12:51Z
TLE epoch observation values (Epoch: 2026-07-26T12:51:28.255Z)
Latitude
62.94386°
Longitude
156.89429°
Altitude
625.959 km
Speed
7.544 km/s
True Right ascension
19h 35m 58s
True Declination
62° 48' 06"
Sunlit
Object was in daylight at epoch
Visualization orbit readout
Latitude
Unknown
Longitude
Unknown
Altitude
Unknown
Speed
Unknown
Apparent Right ascension
Unknown
Apparent Declination
Unknown
Sunlit
N/A
Visualization observer readout
Local Sidereal Time
15:13:15
Azimuth
Unknown
Elevation
Unknown
Doppler factor
Unknown
Orbital elements
Apogee altitude
613.162 km
Perigee altitude
582.353 km
Semi-major axis
6,975.894 km
Eccentricity
0.00221
Inclination
98.8077°
RAAN
311.5551°
Arg. of periapsis
224.2289°
True anomaly
199.98458°
Mean anomaly
200.0712°
Eccentric anomaly
200.02787°
Mean motion
3.72515 °/min
Orbital period
96.64 mins
BSTAR
0.0041228
Loading maneuver chart data...
Computing Atmospheric mass density...

Documentation

Showing up to 5 results
|